• In Belarus
  • List of Countries
  • For 7 days
  • Water Temperature
  • Satellite Maps
  • Weather Map
  • Weather Widgets
  • user-avatar
    Login

    Hourly Weather Oruro

    Today, 24 November, Friday

    Time Temperature Precipitation Wind Pressure Humidity
    00:00 +12°C° 0 mm 2 mps 477 mmHg 52%
    01:00 +10°C° 0 mm 2 mps 476 mmHg 53%
    02:00 +10°C° 0 mm 2 mps 476 mmHg 55%
    03:00 +10°C° 0 mm 1 mps 476 mmHg 57%
    04:00 +10°C° 0 mm 1 mps 475 mmHg 59%
    05:00 +9°C° 0 mm 1 mps 475 mmHg 61%
    06:00 +10°C° 0 mm 1 mps 476 mmHg 54%
    07:00 +11°C° 0 mm 1 mps 476 mmHg 47%
    08:00 +12°C° 0 mm 1 mps 477 mmHg 40%
    09:00 +14°C° 0 mm 1 mps 478 mmHg 33%
    10:00 +15°C° 0 mm 1 mps 479 mmHg 26%
    11:00 +18°C° 0 mm 1 mps 480 mmHg 18%
    12:00 +19°C° 0 mm 1 mps 480 mmHg 16%
    13:00 +19°C° 0 mm 2 mps 480 mmHg 14%
    14:00 +20°C° 0 mm 2 mps 480 mmHg 12%
    15:00 +20°C° 0 mm 3 mps 480 mmHg 15%
    16:00 +20°C° 0 mm 4 mps 480 mmHg 17%
    17:00 +19°C° 0 mm 5 mps 479 mmHg 19%
    18:00 +17°C° 0 mm 5 mps 478 mmHg 28%
    19:00 +15°C° 0 mm 6 mps 478 mmHg 36%
    20:00 +12°C° 0 mm 7 mps 477 mmHg 45%
    21:00 +13°C° 0 mm 6 mps 477 mmHg 46%
    22:00 +12°C° 0 mm 5 mps 477 mmHg 47%
    23:00 +12°C° 0 mm 4 mps 478 mmHg 49%

    Tomorrow, 25 November, Saturday

    Time Temperature Precipitation Wind Pressure Humidity
    00:00 +11°C° 0 mm 4 mps 477 mmHg 51%
    01:00 +11°C° 0 mm 3 mps 477 mmHg 53%
    02:00 +10°C° 0 mm 3 mps 476 mmHg 55%
    03:00 +9°C° 0 mm 3 mps 476 mmHg 57%
    04:00 +9°C° 0 mm 3 mps 476 mmHg 60%
    05:00 +9°C° 0 mm 3 mps 475 mmHg 63%
    06:00 +9°C° 0 mm 3 mps 476 mmHg 59%
    07:00 +10°C° 0 mm 3 mps 477 mmHg 55%
    08:00 +11°C° 0 mm 3 mps 478 mmHg 50%
    09:00 +13°C° 0 mm 3 mps 479 mmHg 44%
    10:00 +16°C° 0 mm 3 mps 480 mmHg 38%
    11:00 +17°C° 0 mm 3 mps 480 mmHg 31%
    12:00 +18°C° 0 mm 3 mps 480 mmHg 28%
    13:00 +19°C° 0 mm 3 mps 480 mmHg 26%
    14:00 +20°C° 0 mm 3 mps 480 mmHg 23%
    15:00 +20°C° 0.2 mm 4 mps 479 mmHg 25%
    16:00 +19°C° 0.2 mm 4 mps 479 mmHg 27%
    17:00 +19°C° 0.2 mm 5 mps 478 mmHg 30%
    18:00 +16°C° 0.6 mm 5 mps 478 mmHg 39%
    19:00 +14°C° 0.6 mm 6 mps 477 mmHg 48%
    20:00 +11°C° 0.6 mm 6 mps 476 mmHg 57%
    21:00 +10°C° 0.4 mm 6 mps 477 mmHg 58%
    22:00 +10°C° 0.4 mm 5 mps 477 mmHg 59%
    23:00 +10°C° 0.4 mm 5 mps 477 mmHg 61%

    Day after tomorrow, 26 November, Sunday

    Time Temperature Precipitation Wind Pressure Humidity
    00:00 +11°C° 0 mm 4 mps 477 mmHg 60%
    01:00 +11°C° 0 mm 4 mps 476 mmHg 60%
    02:00 +10°C° 0 mm 3 mps 476 mmHg 60%
    03:00 +10°C° 0 mm 3 mps 476 mmHg 61%
    04:00 +10°C° 0 mm 3 mps 476 mmHg 62%
    05:00 +10°C° 0 mm 3 mps 475 mmHg 63%
    06:00 +10°C° 0 mm 3 mps 476 mmHg 60%
    07:00 +11°C° 0 mm 3 mps 477 mmHg 56%
    08:00 +11°C° 0 mm 3 mps 477 mmHg 53%
    09:00 +13°C° 0 mm 3 mps 478 mmHg 46%
    10:00 +14°C° 0 mm 4 mps 479 mmHg 40%
    11:00 +17°C° 0 mm 4 mps 480 mmHg 33%
    12:00 +17°C° 0.1 mm 4 mps 479 mmHg 31%
    13:00 +18°C° 0.1 mm 4 mps 479 mmHg 30%
    14:00 +19°C° 0.1 mm 4 mps 479 mmHg 28%
    15:00 +18°C° 0.5 mm 4 mps 478 mmHg 29%
    16:00 +18°C° 0.5 mm 4 mps 477 mmHg 31%
    17:00 +18°C° 0.5 mm 4 mps 477 mmHg 32%
    18:00 +15°C° 0.2 mm 4 mps 476 mmHg 40%
    19:00 +13°C° 0.2 mm 5 mps 476 mmHg 47%
    20:00 +11°C° 0.2 mm 6 mps 475 mmHg 54%
    21:00 +10°C° 0 mm 5 mps 475 mmHg 57%
    22:00 +11°C° 0 mm 4 mps 476 mmHg 60%
    23:00 +10°C° 0 mm 4 mps 476 mmHg 63%

    27 November, Monday

    Time Temperature Precipitation Wind Pressure Humidity
    00:00 +10°C° 0 mm 3 mps 475 mmHg 64%
    01:00 +9°C° 0 mm 3 mps 475 mmHg 65%
    02:00 +9°C° 0 mm 3 mps 475 mmHg 65%
    03:00 +9°C° 0 mm 3 mps 475 mmHg 66%
    04:00 +9°C° 0 mm 2 mps 475 mmHg 67%
    05:00 +9°C° 0 mm 2 mps 475 mmHg 68%
    06:00 +9°C° 0 mm 2 mps 475 mmHg 64%
    07:00 +10°C° 0 mm 2 mps 476 mmHg 60%
    08:00 +12°C° 0 mm 2 mps 477 mmHg 56%
    09:00 +13°C° 0 mm 2 mps 478 mmHg 50%
    10:00 +15°C° 0 mm 2 mps 478 mmHg 43%
    11:00 +16°C° 0 mm 2 mps 479 mmHg 36%
    12:00 +17°C° 0 mm 3 mps 479 mmHg 34%
    13:00 +18°C° 0 mm 4 mps 479 mmHg 31%
    14:00 +19°C° 0 mm 4 mps 479 mmHg 28%
    15:00 +17°C° 0.1 mm 6 mps 478 mmHg 31%
    16:00 +17°C° 0.1 mm 7 mps 478 mmHg 34%
    17:00 +16°C° 0.1 mm 8 mps 477 mmHg 38%
    18:00 +13°C° 0.1 mm 9 mps 477 mmHg 44%
    19:00 +12°C° 0.1 mm 9 mps 476 mmHg 51%
    20:00 +10°C° 0.1 mm 9 mps 476 mmHg 57%
    21:00 +10°C° 0.1 mm 8 mps 476 mmHg 60%
    22:00 +9°C° 0.1 mm 7 mps 477 mmHg 62%
    23:00 +9°C° 0.1 mm 6 mps 477 mmHg 64%

    28 November, Tuesday

    Time Temperature Precipitation Wind Pressure Humidity
    00:00 +9°C° 0 mm 6 mps 477 mmHg 65%
    01:00 +8°C° 0 mm 5 mps 476 mmHg 65%
    02:00 +8°C° 0 mm 4 mps 476 mmHg 66%
    03:00 +8°C° 0 mm 4 mps 476 mmHg 66%
    04:00 +9°C° 0 mm 3 mps 476 mmHg 67%
    05:00 +9°C° 0 mm 3 mps 476 mmHg 67%
    06:00 +9°C° 0.1 mm 3 mps 477 mmHg 65%
    07:00 +8°C° 0.1 mm 4 mps 477 mmHg 63%
    08:00 +10°C° 0.1 mm 4 mps 478 mmHg 61%
    09:00 +10°C° 0.1 mm 5 mps 479 mmHg 56%
    10:00 +11°C° 0.1 mm 6 mps 479 mmHg 50%
    11:00 +14°C° 0.1 mm 6 mps 480 mmHg 45%
    12:00 +14°C° 0.2 mm 7 mps 480 mmHg 45%
    13:00 +13°C° 0.2 mm 8 mps 480 mmHg 45%
    14:00 +13°C° 0.2 mm 8 mps 479 mmHg 45%
    15:00 +13°C° 0 mm 8 mps 479 mmHg 48%
    16:00 +12°C° 0 mm 8 mps 478 mmHg 50%
    17:00 +11°C° 0 mm 8 mps 477 mmHg 52%
    18:00 +10°C° 0 mm 8 mps 477 mmHg 56%
    19:00 +9°C° 0 mm 7 mps 477 mmHg 59%
    20:00 +8°C° 0 mm 7 mps 477 mmHg 63%
    21:00 +8°C° 0 mm 6 mps 477 mmHg 64%
    22:00 +7°C° 0 mm 6 mps 477 mmHg 66%
    23:00 +7°C° 0 mm 5 mps 476 mmHg 68%

    29 November, Wednesday

    Time Temperature Precipitation Wind Pressure Humidity
    00:00 +7°C° 0 mm 4 mps 476 mmHg 69%
    01:00 +6°C° 0 mm 4 mps 476 mmHg 69%
    02:00 +7°C° 0 mm 3 mps 475 mmHg 70%
    03:00 +7°C° 0 mm 2 mps 475 mmHg 71%
    04:00 +7°C° 0 mm 2 mps 475 mmHg 71%
    05:00 +8°C° 0 mm 1 mps 475 mmHg 72%
    06:00 +8°C° 0 mm 1 mps 476 mmHg 68%
    07:00 +9°C° 0 mm 1 mps 477 mmHg 65%
    08:00 +10°C° 0 mm 1 mps 477 mmHg 61%
    09:00 +10°C° 0 mm 2 mps 478 mmHg 55%
    10:00 +13°C° 0 mm 2 mps 479 mmHg 49%
    11:00 +14°C° 0 mm 2 mps 479 mmHg 44%
    12:00 +14°C° 0.1 mm 3 mps 479 mmHg 41%
    13:00 +15°C° 0.1 mm 4 mps 479 mmHg 39%
    14:00 +16°C° 0.1 mm 5 mps 479 mmHg 37%
    15:00 +16°C° 0.1 mm 5 mps 478 mmHg 39%
    16:00 +15°C° 0.1 mm 6 mps 478 mmHg 40%
    17:00 +15°C° 0.1 mm 7 mps 477 mmHg 42%
    18:00 +14°C° 0 mm 7 mps 477 mmHg 48%
    19:00 +11°C° 0 mm 7 mps 476 mmHg 54%
    20:00 +10°C° 0 mm 7 mps 476 mmHg 60%
    21:00 +9°C° 0 mm 7 mps 476 mmHg 62%
    22:00 +9°C° 0 mm 6 mps 476 mmHg 64%
    23:00 +8°C° 0 mm 5 mps 476 mmHg 66%
    Show more